Location: Newark
(25.0000°N, 73.5000°E)
Time: 08:41:32
(UTC+00:00)

Tiangong - Pass Details

Date: 27 June 2021
Orbit: 374 x 386 km, 41.5° (Epoch: 28 July)

Event Time Altitude Azimuth Distance (km) Brightness Sun altitude
Rises 23:41:11 0° 322° (NW) 2,237 4.9 -8.3°
Reaches altitude 10° 23:43:46 10° 344° (NNW) 1,388 4.1 -7.8°
Maximum altitude 23:45:52 17° 26° (NNE) 1,068 4.2 -7.4°
Drops below altitude 10° 23:47:59 10° 69° (ENE) 1,392 5.6 -7.0°
Sets 23:50:34 0° 91° (E) 2,246 6.1 -6.5°
